Pittsburgh Allegheny Co., PA

4:16 PM EST on January 20, 2018 (GMT -0500)
Allegheny County

Weather History for KAGC - August, 2014

Change the Weather History Date:

Monday, August 18, 2014

  Actual Average Record
Temperature  
Mean Temperature 72 °F -  
Max Temperature 82 °F 82 °F 96 °F (1988)
Min Temperature 64 °F 63 °F 33 °F (1996)
Cooling Degree Days 8    
Growing Degree Days 22 (Base 50)    
Moisture  
Dew Point 62 °F    
Average Humidity 71    
Maximum Humidity 94    
Minimum Humidity 56    
Precipitation  
Precipitation 0.05 in - - ()
Sea Level Pressure  
Sea Level Pressure 29.88 in    
Wind  
Wind Speed 2 mph (NNE)    
Max Wind Speed 6 mph    
Max Gust Speed -    
Visibility 8 miles    
Events      
Averages and records for this station are not official NWS values.
T = Trace of Precipitation, MM = Missing Value Source: NWS Daily Summary

Daily Weather History Graph

Daily Weather History Graph

Search for Another Location

Airport or City:

Trip Planner

Search our weather history database for the weather conditions in past years. The results will help you decide how hot, cold, wet, or windy it might be!

Date:

Astronomy

Aug. 18, 2014 Rise Set
Actual Time 6:33 AM EDT 8:12 PM EDT
Civil Twilight 6:04 AM EDT 8:41 PM EDT
Nautical Twilight 5:29 AM EDT 9:16 PM EDT
Astronomical Twilight 4:52 AM EDT 9:53 PM EDT
Moon 12:39 AM EDT (8/18) 3:14 PM EDT (8/18)
Length of Visible Light 14h 37m
Length of Day
13h 39m
Last Quarter, 38% of the Moon is Illuminated
Aug 18
Last Quarter
Aug 25
New
Sep 2
First Quarter
Sep 8
Full
Sep 15
Last Quarter

Hourly Weather History & Observations

Time (EDT) Temp. Heat Index Dew Point Humidity Pressure Visibility Wind Dir Wind Speed Gust Speed Precip Events Conditions
12:53 AM 70.0 °F - 59.0 °F 68% 29.96 in 10.0 mi East 3.5 mph - N/A   Overcast
1:53 AM 68.0 °F - 60.1 °F 76% 29.95 in 10.0 mi Calm Calm - N/A   Overcast
2:53 AM 68.0 °F - 59.0 °F 73% 29.94 in 10.0 mi Calm Calm - N/A   Overcast
3:53 AM 64.9 °F - 60.1 °F 84% 29.93 in 10.0 mi North 3.5 mph - 0.05 in   Overcast
4:53 AM 64.9 °F - 60.1 °F 84% 29.92 in 10.0 mi Calm Calm - N/A   Overcast
5:53 AM 64.0 °F - 60.1 °F 87% 29.91 in 9.0 mi Calm Calm - N/A   Overcast
6:53 AM 64.9 °F - 60.1 °F 84% 29.92 in 10.0 mi Calm Calm - N/A   Overcast
7:38 AM 64.4 °F - 62.6 °F 94% 29.93 in 7.0 mi Calm Calm - N/A   Overcast
7:53 AM 66.0 °F - 62.1 °F 87% 29.92 in 5.0 mi Calm Calm - N/A   Overcast
8:53 AM 66.9 °F - 62.1 °F 84% 29.92 in 5.0 mi NNE 3.5 mph - N/A   Haze
9:08 AM 68.0 °F - 62.6 °F 83% 29.93 in 7.0 mi ENE 3.5 mph - N/A   Overcast
9:53 AM 70.0 °F - 64.0 °F 81% 29.91 in 5.0 mi ENE 4.6 mph - N/A   Haze
10:53 AM 72.0 °F - 64.9 °F 78% 29.91 in 5.0 mi Calm Calm - N/A   Haze
11:53 AM 73.9 °F - 66.0 °F 76% 29.91 in 4.0 mi Variable 3.5 mph - N/A   Haze
12:53 PM 77.0 °F - 66.0 °F 69% 29.88 in 5.0 mi Variable 4.6 mph - N/A   Haze
1:20 PM 78.8 °F - 66.2 °F 65% 29.88 in 5.0 mi Calm Calm - N/A   Haze
1:53 PM 79.0 °F - 66.9 °F 66% 29.86 in 6.0 mi Variable 3.5 mph - N/A   Haze
2:18 PM 77.0 °F - 64.4 °F 65% 29.86 in 5.0 mi ENE 5.8 mph - N/A   Haze
2:53 PM 80.1 °F 82.1 °F 66.0 °F 62% 29.83 in 7.0 mi NE 4.6 mph - N/A   Scattered Clouds
3:53 PM 81.0 °F 82.5 °F 64.0 °F 56% 29.82 in 7.0 mi Variable 4.6 mph - N/A   Mostly Cloudy
4:53 PM 80.1 °F 81.5 °F 63.0 °F 56% 29.81 in 10.0 mi NNE 4.6 mph - N/A   Overcast
5:53 PM 80.1 °F 81.5 °F 63.0 °F 56% 29.81 in 10.0 mi NE 4.6 mph - N/A   Overcast
6:53 PM 79.0 °F - 63.0 °F 58% 29.81 in 10.0 mi NE 5.8 mph - N/A   Scattered Clouds
7:53 PM 77.0 °F - 61.0 °F 58% 29.81 in 10.0 mi NE 4.6 mph - N/A   Scattered Clouds
8:53 PM 75.0 °F - 59.0 °F 57% 29.82 in 10.0 mi NNE 3.5 mph - N/A   Clear
9:53 PM 73.0 °F - 59.0 °F 61% 29.84 in 10.0 mi North 4.6 mph - N/A   Partly Cloudy
10:53 PM 73.0 °F - 59.0 °F 61% 29.83 in 10.0 mi North 3.5 mph - N/A   Mostly Cloudy
11:53 PM 72.0 °F - 59.0 °F 64% 29.83 in 10.0 mi North 3.5 mph - N/A   Overcast